"Pseudo-MPEC" for P12payV

Created 2026 Aug 12 2:35:19 UT using Find_Orb

Click here for an explanation of pseudo-MPECs

 
 Astrometry: 
     P12payV 0C2026 08 07.37745422 18 50.082+10 31 55.29   ~8C2K 21.72GVNEOCPF52
     P12payV 0C2026 08 07.39779122 18 52.117+10 31 06.13   ~8C2K       VNEOCPF52
     P12payV 0C2026 08 07.40793922 18 53.137+10 30 41.29   ~8C2K 22.54GVNEOCPF52
     P12payV*0C2026 08 11.49589522 25 57.986+07 42 48.77   ~8BF5 21.47wXNEOCPF51
     P12payV 0C2026 08 11.52309422 26 00.152+07 41 41.41   ~8BF5 21.12wXNEOCPF51
     P12payV 0C2026 08 11.53642222 26 01.211+07 41 08.50   ~8BF5 20.97wXNEOCPF51
     P12payV 0C2026 08 11.62589122 26 08.529+07 37 26.29   ~8BKZ 20.92GVNEOCPF51
     P12payV 0C2026 08 11.62653822 26 08.590+07 37 24.91   ~8BKZ 20.86GVNEOCPF51
     P12payV KB2026 08 12.04260922 26 49.16 +07 20 07.3    ~8C1Z 20.7 GVNEOCPL01
     P12payV KB2026 08 12.04769122 26 49.57 +07 19 54.7    ~8C1Z 20.7 GVNEOCPL01
     P12payV KB2026 08 12.05277222 26 49.97 +07 19 42.6    ~8C1Z 20.8 GVNEOCPL01

Station data:
(F51) Pan-STARRS 1, Haleakala  (N20.707234 W156.255910)  US/Hawaii.
   Observers J. Herman, T. Lowe, P. Minguez, A. Schultz, I. Smith. Measurers
   K. Chambers, T. de Boer, J. Fairlamb, H. Gao, M. Huber, C.-C. Lin, E.
   Magnier, Y. Ramanjooloo, R. Wainscoat, R. Weryk. 1.8-m Ritchey-Chrétien +
   CCD.
(F52) Pan-STARRS 2, Haleakala  (N20.707382 W156.255910)  US/Hawaii.
   Observers J. Herman, T. Lowe, P. Minguez, A. Schultz, I. Smith. Measurers
   K. Chambers, T. de Boer, J. Fairlamb, H. Gao, M. Huber, C.-C. Lin, E.
   Magnier, Y. Ramanjooloo, R. Wainscoat, R. Weryk. 1.8-m Ritchey-Chrétien +
   CCD.
(L01) Višnjan Observatory, Tičan  (N45.290897 E13.749300)  Croatia.
   Observers K. Korlević, L. Poropat. Measurer K. Korlevic. 1.0-m f/2.9
   reflector + CCD.

Orbital elements:  P12payV
   Perihelion 2026 Jul 5.967220 +/- 0.0299 TT = 23:12:47.8 (JD 2461227.467220)
Epoch 2026 Aug 12.0 TT = JDT 2461264.5   Earth MOID: 0.1680   Ma: 0.0119
M  11.479812815 +/- 0.12            (J2000 ecliptic)             AutoNEOCP
n   0.309990576 +/- 0.00352         Peri.  124.234693 +/- 0.07
a   2.162239123 +/- 0.0164          Node   163.370569 +/- 0.027
e   0.47253079 +/- 0.00355          Incl.    7.931547 +/- 0.058
P   3.17948                H 23.16  G  0.15   U  8.9
q 1.140514548 +/- 0.00103    Q 3.183963698 +/- 0.0318
From 11 observations 2026 Aug. 7-12; mean residual 0".12
Residuals in arcseconds: 
260807 F52  .04-  .08-    260811 F51  .09+  .02-    260812 L01  .05-  .09-    
260807 F52  .08-  .12+    260811 F51  .07+  .02+    260812 L01  .07-  .17-    
260807 F52  .11+  .04-    260811 F51  .04-  .21-    260812 L01  .25-  .26+    
260811 F51  .10-  .19+    260811 F51  .05+  .02+    

Ephemerides (geocentric):
Date (UTC) HH   RA             Dec           delta  r     elong  mag " sig PA
---- --------  ------------   ------------  ------ ------ -----  --- --------
2026 08 12 03  22 26 57.209   +07 17 09.61  .21718 1.2109 153.0 21.3 .114 167
2026 08 12 04  22 27 01.056   +07 15 27.18  .21728 1.2111 153.0 21.3 .121 161
2026 08 12 05  22 27 04.895   +07 13 44.78  .21738 1.2112 153.1 21.3 .128 156
2026 08 12 06  22 27 08.726   +07 12 02.38  .21748 1.2114 153.1 21.3 .137 152
2026 08 12 07  22 27 12.551   +07 10 20.01  .21757 1.2115 153.2 21.3 .147 148
2026 08 12 08  22 27 16.368   +07 08 37.64  .21767 1.2117 153.2 21.3 .157 144
2026 08 12 09  22 27 20.178   +07 06 55.30  .21777 1.2118 153.3 21.3 .169 141
2026 08 12 10  22 27 23.980   +07 05 12.96  .21787 1.2120 153.3 21.3 .180 138
2026 08 12 11  22 27 27.775   +07 03 30.65  .21797 1.2121 153.4 21.3 .193 136
2026 08 12 12  22 27 31.563   +07 01 48.35  .21806 1.2123 153.4 21.3 .206 134
2026 08 12 13  22 27 35.344   +07 00 06.06  .21816 1.2124 153.5 21.3 .219 132
2026 08 12 14  22 27 39.117   +06 58 23.80  .21826 1.2126 153.5 21.3 .233 130
2026 08 12 15  22 27 42.884   +06 56 41.55  .21836 1.2127 153.6 21.3 .247 128
2026 08 12 16  22 27 46.642   +06 54 59.32  .21846 1.2129 153.6 21.3 .261 127
2026 08 12 17  22 27 50.394   +06 53 17.10  .21856 1.2130 153.7 21.3 .276 126
2026 08 12 18  22 27 54.139   +06 51 34.91  .21866 1.2132 153.7 21.3 .291 124
2026 08 12 19  22 27 57.876   +06 49 52.73  .21876 1.2133 153.7 21.3 .307 123
2026 08 12 20  22 28 01.606   +06 48 10.57  .21886 1.2135 153.8 21.3 .323 122
2026 08 12 21  22 28 05.329   +06 46 28.42  .21896 1.2136 153.8 21.3 .339 121
2026 08 12 22  22 28 09.045   +06 44 46.30  .21906 1.2138 153.9 21.3 .355 121
2026 08 12 23  22 28 12.754   +06 43 04.20  .21916 1.2140 153.9 21.3 .372 120
2026 08 13 00  22 28 16.455   +06 41 22.11  .21926 1.2141 154.0 21.3 .389 119
2026 08 13 01  22 28 20.150   +06 39 40.05  .21936 1.2143 154.0 21.3 .406 119
2026 08 13 02  22 28 23.837   +06 37 58.01  .21947 1.2144 154.1 21.3 .423 118
2026 08 13 03  22 28 27.517   +06 36 15.98  .21957 1.2146 154.1 21.3 .441 117
2026 08 13 04  22 28 31.190   +06 34 33.98  .21967 1.2147 154.2 21.3 .459 117
2026 08 13 05  22 28 34.856   +06 32 52.00  .21977 1.2149 154.2 21.3 .477 116
2026 08 13 06  22 28 38.515   +06 31 10.03  .21987 1.2150 154.3 21.3 .495 116
2026 08 13 07  22 28 42.167   +06 29 28.09  .21997 1.2152 154.3 21.3 .514 115
2026 08 13 08  22 28 45.812   +06 27 46.18  .22008 1.2153 154.4 21.3 .533 115
2026 08 13 09  22 28 49.449   +06 26 04.28  .22018 1.2155 154.4 21.3 .552 115
2026 08 13 10  22 28 53.080   +06 24 22.40  .22028 1.2156 154.5 21.3 .571 114
2026 08 13 11  22 28 56.704   +06 22 40.55  .22039 1.2158 154.5 21.3 .591 114
2026 08 13 12  22 29 00.320   +06 20 58.72  .22049 1.2159 154.5 21.3 .610 114
2026 08 13 13  22 29 03.930   +06 19 16.92  .22059 1.2161 154.6 21.3 .630 113
2026 08 13 14  22 29 07.533   +06 17 35.13  .22070 1.2163 154.6 21.3 .650 113
2026 08 13 15  22 29 11.128   +06 15 53.37  .22080 1.2164 154.7 21.3 .671 113
2026 08 13 16  22 29 14.717   +06 14 11.64  .22090 1.2166 154.7 21.3 .691 113
2026 08 13 17  22 29 18.299   +06 12 29.92  .22101 1.2167 154.8 21.3 .712 112
2026 08 13 18  22 29 21.874   +06 10 48.24  .22111 1.2169 154.8 21.3 .733 112
2026 08 13 19  22 29 25.442   +06 09 06.57  .22122 1.2170 154.9 21.3 .754 112
2026 08 13 20  22 29 29.003   +06 07 24.93  .22132 1.2172 154.9 21.3 .776 112
2026 08 13 21  22 29 32.557   +06 05 43.32  .22143 1.2173 155.0 21.3 .797 111
2026 08 13 22  22 29 36.104   +06 04 01.73  .22153 1.2175 155.0 21.3 .819 111
2026 08 13 23  22 29 39.644   +06 02 20.17  .22164 1.2177 155.1 21.3 .841 111
2026 08 14 00  22 29 43.178   +06 00 38.63  .22175 1.2178 155.1 21.3 .864 111
2026 08 14 01  22 29 46.704   +05 58 57.12  .22185 1.2180 155.2 21.3 .886 111
2026 08 14 02  22 29 50.224   +05 57 15.64  .22196 1.2181 155.2 21.3 .909 111